[[{"header":{"parameterUnit":"m.s-1","parameterCategory":1,"la1":30.2991,"la2":30.254,"lo1":-89.0895,"lo2":-89.0444,"dy":0.0017,"dx":0.0017,"nx":28,"ny":28,"refTime":"2025-11-09T03:00:00:Z","depth":0,"parameterNumber":2,"parameterNumberName":"U-component_of_WINDS"},"data":[0,0,0,0,0,0,0,0,0,0,0,0,0,0,0,0,0,0,0,0,0,0,0,0,0,0,0,0,0,0,0,0,0,0,0,0,0,0,0,0,0,0,0,0,0,0,0,0,0,0,0,0,0,0,0,0,0,0,3.2201,3.2201,0,3.2233,3.2234,3.2234,3.2203,3.2202,3.2201,3.22,3.2231,3.2233,3.2235,0,0,0,0,0,0,0,0,0,0,0,0,0,3.2113,3.2115,3.2201,3.2201,3.2202,3.2233,3.2234,3.2234,3.2204,3.2202,3.2201,3.2199,3.2231,3.2233,3.2235,0,0,0,0,0,0,0,0,0,0,0,0,0,3.2149,3.2115,3.2201,3.219,3.219,3.2233,3.2234,3.2234,3.2204,3.2202,3.22,3.2198,3.223,3.2233,3.2236,3.2291,0,0,3.2245,3.2246,0,0,0,0,0,0,0,0,3.2147,3.2152,3.2191,3.2191,3.2191,3.2212,3.2214,3.2253,3.2204,3.2198,3.22,3.2198,3.2226,3.223,3.224,3.2292,3.2293,3.2245,3.2247,3.2248,3.2249,0,0,0,0,0,0,0,3.2144,3.215,3.2214,3.2192,3.2192,3.2184,3.2187,3.2221,3.2222,3.2199,3.2197,3.2201,3.2226,3.2237,3.224,3.2294,3.2245,3.2248,3.2249,3.2251,3.2395,3.2397,0,0,0,0,0,0,3.2143,3.2149,3.2213,3.2215,3.2164,3.2187,3.2191,3.2207,3.2222,3.2222,3.2203,3.2199,3.2233,3.2237,3.2241,3.2307,3.2248,3.2251,3.2252,3.2393,3.2396,3.2398,0,0,0,0,0,0,3.2141,3.2149,3.2211,3.2181,3.2188,3.2191,3.221,3.2209,3.222,3.2225,3.2225,3.2214,3.2231,3.2237,3.2279,3.2308,3.2252,3.2255,3.2391,3.2394,3.2397,3.244,0,0,0,0,0,0,3.2139,3.2149,3.2169,3.2182,3.219,3.2249,3.2211,3.2211,3.2225,3.2221,3.2235,3.2235,3.223,3.2275,3.2282,3.2311,3.2257,3.2388,3.2392,3.2396,3.2436,3.2444,3.2451,0,0,0,0,0,3.2136,3.2179,3.217,3.2178,3.2216,3.225,3.2255,3.2249,3.2228,3.2249,3.2252,3.2235,3.2304,3.2279,3.2287,3.2318,3.2386,3.2391,3.2396,3.2433,3.2443,3.2451,0,0,0,0,0,0,3.2168,3.218,3.2171,3.222,3.2235,3.2245,3.2271,3.2259,3.228,3.2275,3.2266,3.227,3.2315,3.232,3.2293,3.2373,3.2342,3.2348,3.2367,3.2377,3.2384,3.2382,3.226,0,0,0,0,0,3.2182,3.2209,3.2218,3.226,3.2268,3.2269,3.2283,3.2278,3.2292,3.2298,3.2304,3.2319,3.2345,3.2361,3.2384,3.2437,3.244,3.2462,3.247,3.2476,3.2482,3.2512,3.2522,3.2413,3.2413,3.2413,0,0,3.2208,3.2218,3.2236,3.2267,3.2278,3.2306,3.2274,3.2305,3.2326,3.2302,3.2343,3.2349,3.2365,3.2413,3.2435,3.2419,3.2513,3.2482,3.2487,3.2489,3.2518,3.2528,3.2537,3.2417,3.2416,3.2416,0,0,3.2272,3.2282,3.2319,3.2331,3.2349,3.2349,3.2358,3.2372,3.2375,3.2416,3.2399,3.2425,3.2468,3.2481,3.2493,3.2565,3.255,3.2573,3.2612,3.2642,3.265,3.2658,3.2684,3.2694,3.2578,3.2578,3.2578,0,3.2303,3.2345,3.2339,3.2373,3.2387,3.2369,3.2407,3.2419,3.2443,3.2453,3.2436,3.2492,3.2501,3.2553,3.2571,3.2581,3.2591,3.257,3.2649,3.2657,3.2664,3.2689,3.2699,3.2581,3.2581,3.258,3.258,0,3.2383,3.2413,3.2441,3.2466,3.2484,3.2519,3.2519,3.2538,3.2532,3.2534,3.2577,3.2589,3.2615,3.2627,3.262,3.2679,3.2669,3.2651,3.2619,3.2677,3.27,3.271,3.2585,3.2584,3.2583,3.2582,0,0,3.2465,3.2489,3.2499,3.2511,3.2531,3.2554,3.2589,3.2616,3.2633,3.2651,3.2681,3.2719,3.2704,3.2717,3.2712,3.2738,3.2796,3.2717,3.2718,3.2732,3.2863,3.2876,3.2887,3.2787,3.2789,3.279,3.2861,0,3.253,3.2592,3.2589,3.2647,3.2675,3.266,3.2691,3.2706,3.271,3.2735,3.274,3.2768,3.2745,3.2753,3.2778,3.2784,3.2822,3.2779,3.2815,3.2816,3.2811,3.2899,3.2913,3.2979,3.2871,3.2872,3.2873,0,3.2613,3.2635,3.2696,3.2714,3.2725,3.2753,3.2779,3.2803,3.2821,3.2822,3.284,3.2831,3.2868,3.2836,3.2887,3.2858,3.2873,3.2878,3.2881,3.2883,3.2848,3.2904,3.3,3.301,3.2887,3.2886,3.2885,0,3.2667,3.2713,3.2756,3.2767,3.2788,3.2808,3.2818,3.2834,3.2851,3.2874,3.2885,3.2911,3.2925,3.2946,3.2945,3.2922,3.2997,3.2965,3.3,3.3,3.3015,3.3014,3.3114,3.3026,3.3025,3.3025,3.3025,0,3.274,3.2778,3.2781,3.2807,3.285,3.2847,3.289,3.2897,3.2913,3.2941,3.2929,3.2956,3.2953,3.298,3.298,3.3023,3.3029,3.3032,3.3031,3.3033,3.3032,3.3042,3.3037,3.3028,3.3027,3.3027,3.3026,0,3.2807,3.2811,3.2857,3.2874,3.288,3.2911,3.2925,3.2951,3.2955,3.2991,3.2999,3.3006,3.3037,3.3039,3.3075,3.3075,3.3127,3.3122,3.3122,3.312,3.3155,3.3152,3.3264,3.3279,3.3181,3.3182,3.3182,0,3.2852,3.2882,3.2903,3.2922,3.2933,3.2962,3.298,3.298,3.2999,3.3023,3.3046,3.3077,3.3101,3.3153,3.3161,3.3189,3.3184,3.3221,3.3188,3.3189,3.3185,3.3183,3.3186,3.3228,3.3229,3.323,3.323,0,3.2933,3.2934,3.2961,3.2989,3.3011,3.3033,3.3054,3.3069,3.3071,3.3094,3.3126,3.3146,3.3184,3.3215,3.3243,3.3253,3.3242,3.3241,3.3251,3.3252,3.3251,3.3253,3.3139,3.3238,3.3237,3.3237,3.3236,3.3236,3.2991,3.3017,3.3037,3.3067,3.3083,3.3103,3.3129,3.3137,3.3165,3.3196,3.3194,3.3231,3.3251,3.3287,3.33,3.3329,3.3316,3.333,3.3333,3.3336,3.334,3.3247,3.3334,3.3334,3.3334,3.3333,3.3333,0,3.3071,3.3084,3.3112,3.3142,3.3167,3.3156,3.3179,3.32,3.3233,3.3252,3.3278,3.3316,3.3347,3.3359,3.3389,3.341,3.3406,3.3418,3.3416,3.3419,3.335,3.3339,3.3421,3.3421,3.3421,3.3421,3.3421,3.3421,3.3116,3.316,3.3164,3.3216,3.3229,3.3265,3.3279,3.3298,3.3314,3.3358,3.3384,3.3392,3.3409,3.3441,3.3469,3.3472,3.3483,3.3498,3.3498,3.3433,3.3424,3.3415,3.3405,3.35,3.35,3.3565,3.3566,3.3566]},{"header":{"parameterUnit":"m.s-1","parameterCategory":1,"la1":30.2991,"la2":30.254,"lo1":-89.0895,"lo2":-89.0444,"dy":0.0017,"dx":0.0017,"nx":28,"ny":28,"refTime":"2025-11-09T03:00:00:Z","depth":0,"parameterNumber":3,"parameterNumberName":"V-component_of_WINDS"},"data":[0,0,0,0,0,0,0,0,0,0,0,0,0,0,0,0,0,0,0,0,0,0,0,0,0,0,0,0,0,0,0,0,0,0,0,0,0,0,0,0,0,0,0,0,0,0,0,0,0,0,0,0,0,0,0,0,0,0,-7.113,-7.1131,0,-7.1262,-7.1263,-7.1265,-7.1207,-7.1204,-7.1201,-7.1197,-7.1328,-7.1335,-7.1341,0,0,0,0,0,0,0,0,0,0,0,0,0,-7.0826,-7.0832,-7.113,-7.1131,-7.1133,-7.1262,-7.1263,-7.1265,-7.1208,-7.1204,-7.12,-7.1196,-7.1326,-7.1334,-7.1342,0,0,0,0,0,0,0,0,0,0,0,0,0,-7.0958,-7.0833,-7.1129,-7.112,-7.112,-7.1261,-7.1264,-7.1266,-7.1208,-7.1204,-7.1199,-7.1194,-7.1324,-7.1333,-7.1343,-7.15,0,0,-7.1373,-7.1377,0,0,0,0,0,0,0,0,-7.095,-7.0969,-7.112,-7.1121,-7.1122,-7.1213,-7.1204,-7.1344,-7.121,-7.1175,-7.1197,-7.1192,-7.1294,-7.1306,-7.1341,-7.1506,-7.1511,-7.1373,-7.1379,-7.1384,-7.1386,0,0,0,0,0,0,0,-7.0941,-7.0963,-7.1182,-7.1122,-7.1123,-7.1108,-7.1122,-7.123,-7.126,-7.1177,-7.1174,-7.119,-7.1293,-7.1332,-7.1343,-7.1513,-7.1373,-7.1382,-7.1388,-7.1392,-7.1817,-7.1822,0,0,0,0,0,0,-7.0932,-7.0956,-7.1178,-7.1186,-7.1022,-7.1118,-7.1133,-7.1189,-7.1258,-7.1264,-7.1194,-7.1187,-7.1317,-7.1332,-7.1348,-7.1538,-7.1383,-7.1393,-7.1398,-7.1811,-7.1818,-7.1824,0,0,0,0,0,0,-7.0926,-7.0953,-7.1172,-7.107,-7.1097,-7.1128,-7.1191,-7.1194,-7.1232,-7.1271,-7.1276,-7.1228,-7.1314,-7.1334,-7.1463,-7.1542,-7.1397,-7.1406,-7.1805,-7.1813,-7.1821,-7.1919,0,0,0,0,0,0,-7.0918,-7.0951,-7.1011,-7.1072,-7.1102,-7.1287,-7.1196,-7.12,-7.1249,-7.1241,-7.1304,-7.131,-7.1312,-7.1449,-7.1473,-7.1553,-7.1413,-7.1798,-7.1809,-7.1818,-7.1909,-7.193,-7.1947,0,0,0,0,0,-7.0907,-7.1032,-7.1014,-7.1041,-7.1178,-7.1291,-7.1309,-7.131,-7.1256,-7.1317,-7.1342,-7.1308,-7.153,-7.1463,-7.1489,-7.1573,-7.1793,-7.1806,-7.1818,-7.19,-7.1926,-7.1947,0,0,0,0,0,0,-7.0977,-7.1039,-7.1021,-7.1169,-7.1226,-7.1281,-7.1357,-7.1336,-7.1407,-7.1396,-7.1393,-7.1408,-7.1543,-7.157,-7.1495,-7.173,-7.1653,-7.1671,-7.1707,-7.1731,-7.175,-7.1741,-7.1421,0,0,0,0,0,-7.101,-7.1097,-7.1147,-7.1273,-7.1302,-7.1326,-7.1374,-7.1371,-7.1429,-7.1452,-7.1486,-7.1543,-7.1626,-7.168,-7.1757,-7.1913,-7.1927,-7.1984,-7.2003,-7.2018,-7.2034,-7.2121,-7.2147,-7.1864,-7.1864,-7.1864,0,0,-7.1078,-7.1123,-7.1178,-7.1288,-7.1331,-7.1422,-7.1346,-7.1443,-7.1511,-7.1466,-7.1591,-7.1619,-7.1682,-7.1826,-7.1891,-7.1853,-7.2116,-7.2034,-7.2046,-7.2053,-7.2136,-7.2163,-7.2187,-7.1872,-7.1871,-7.187,0,0,-7.125,-7.1292,-7.1403,-7.1449,-7.1517,-7.1532,-7.1559,-7.1619,-7.1637,-7.1763,-7.1732,-7.1811,-7.1953,-7.2,-7.2042,-7.2236,-7.2207,-7.2261,-7.2361,-7.2446,-7.2468,-7.2488,-7.2559,-7.2584,-7.2277,-7.2277,-7.2277,0,-7.1326,-7.1462,-7.1462,-7.1565,-7.1614,-7.1581,-7.1694,-7.1738,-7.1827,-7.1862,-7.1819,-7.1999,-7.2038,-7.2194,-7.2242,-7.2277,-7.2308,-7.2254,-7.2465,-7.2485,-7.2503,-7.2571,-7.2597,-7.2283,-7.2282,-7.2282,-7.2281,0,-7.1553,-7.1648,-7.1729,-7.182,-7.1878,-7.1985,-7.2002,-7.2062,-7.2054,-7.2074,-7.2204,-7.2251,-7.2339,-7.2376,-7.2367,-7.2531,-7.2506,-7.2465,-7.2387,-7.2537,-7.26,-7.2626,-7.2292,-7.229,-7.2288,-7.2286,0,0,-7.177,-7.1862,-7.1892,-7.1934,-7.2007,-7.2081,-7.2187,-7.2275,-7.2327,-7.239,-7.248,-7.2602,-7.2565,-7.2614,-7.2611,-7.2685,-7.2838,-7.2634,-7.2636,-7.2672,-7.3024,-7.3056,-7.3086,-7.282,-7.2825,-7.2829,-7.3019,0,-7.1948,-7.2135,-7.2141,-7.2312,-7.2401,-7.2372,-7.2465,-7.252,-7.2542,-7.262,-7.2644,-7.2732,-7.2675,-7.2705,-7.2777,-7.2804,-7.2909,-7.279,-7.2903,-7.2907,-7.289,-7.3119,-7.3152,-7.3329,-7.3044,-7.3048,-7.3051,0,-7.218,-7.2254,-7.2435,-7.25,-7.2537,-7.262,-7.2704,-7.2779,-7.2841,-7.2852,-7.2909,-7.2896,-7.3004,-7.2924,-7.3074,-7.2994,-7.304,-7.3061,-7.3068,-7.3079,-7.2989,-7.3137,-7.3386,-7.3413,-7.309,-7.3087,-7.3084,0,-7.2323,-7.2467,-7.2595,-7.2631,-7.2709,-7.2769,-7.2804,-7.2862,-7.2916,-7.2988,-7.3024,-7.3107,-7.3153,-7.3218,-7.3228,-7.3168,-7.338,-7.3299,-7.3392,-7.3393,-7.3438,-7.3435,-7.3699,-7.3467,-7.3466,-7.3466,-7.3465,0,-7.2521,-7.2634,-7.2661,-7.2739,-7.2865,-7.287,-7.2994,-7.3024,-7.3077,-7.3161,-7.314,-7.322,-7.3228,-7.331,-7.3318,-7.3443,-7.3463,-7.3475,-7.3476,-7.3478,-7.3477,-7.3509,-7.3497,-7.3473,-7.3471,-7.347,-7.3469,0,-7.2701,-7.2724,-7.2862,-7.2925,-7.2944,-7.3034,-7.3088,-7.3164,-7.3185,-7.3292,-7.3317,-7.335,-7.3446,-7.3463,-7.3574,-7.358,-7.373,-7.3717,-7.3709,-7.3708,-7.3801,-7.3793,-7.4095,-7.4136,-7.3876,-7.3878,-7.388,0,-7.2827,-7.2913,-7.2988,-7.3044,-7.3082,-7.3172,-7.3228,-7.3237,-7.3297,-7.3377,-7.3443,-7.3537,-7.3613,-7.3767,-7.3801,-7.3887,-7.3877,-7.3978,-7.389,-7.389,-7.3881,-7.3876,-7.3886,-7.3994,-7.3997,-7.3999,-7.4001,0,-7.3049,-7.3056,-7.3139,-7.3227,-7.3295,-7.3364,-7.3429,-7.3476,-7.3493,-7.3561,-7.366,-7.3719,-7.3836,-7.393,-7.4016,-7.4051,-7.4031,-7.4029,-7.4055,-7.4058,-7.4051,-7.4058,-7.3757,-7.4022,-7.402,-7.4018,-7.4017,-7.4016,-7.3206,-7.3283,-7.3348,-7.3442,-7.3492,-7.3555,-7.363,-7.3662,-7.3745,-7.3842,-7.3842,-7.3951,-7.4014,-7.4129,-7.417,-7.4255,-7.4223,-7.4261,-7.427,-7.428,-7.429,-7.4037,-7.4271,-7.427,-7.427,-7.4269,-7.4269,0,-7.3428,-7.347,-7.3556,-7.3649,-7.3724,-7.3699,-7.3771,-7.3834,-7.3931,-7.3992,-7.4069,-7.4184,-7.4276,-7.4318,-7.4409,-7.4469,-7.4462,-7.4493,-7.4489,-7.4498,-7.4312,-7.4281,-7.4497,-7.4497,-7.4497,-7.4497,-7.4497,-7.4497,-7.3552,-7.3682,-7.3698,-7.3853,-7.3893,-7.4001,-7.4045,-7.4103,-7.4152,-7.4283,-7.436,-7.4387,-7.4442,-7.4537,-7.4621,-7.4631,-7.4666,-7.4702,-7.4707,-7.4533,-7.451,-7.4488,-7.4459,-7.4709,-7.4709,-7.4885,-7.4887,-7.4888]}]]